Theta_e
328 327 327 326 328 328 328 328 329 329 330 330 331 330 329 328 327 326 324 323 322 321
328 328 329 328 328 329 329 329 330 330 329 330 329 329 328 327 326 325 325 324 324 322
328 328 328 326 325 326 326 326 325 325 326 325 325 325 324 323 322 321 321 322 322 321
321 323 324 323 323 324 324 324 323 323 323 322 321 321 321 320 319 318 317 317 317 317
315 317 318 318 320 321 321 321 321 320 319 318 317 317 316 316 315 315 314 315 313 315
308 311 311 311 311 313 313 314 314 315 316 316 314 312 311 311 310 309 309 311 311 311
303 304 304 304 305 306 307 307 307 310 309 309 307 306 306 306 308 308 309 308 307 308
303 303 303 303 303 303 304 303 304 304 304 304 304 303 306 305 306 305 305 303 302 301
301 301 301 301 300 300 300 301 301 300 300 298 295 292 296 301 304 302 301 301 299 297
298 298 297 298 298 297 297 297 297 297 297 296 294 294 294 293 296 297 296 296 294 294
294 295 294 294 294 294 294 294 294 294 294 293 293 294 294 291 293 294 294 294 293 293
292 291 290 290 291 292 291 291 291 291 292 291 291 292 293 292 292 291 290 291 291 291
289 289 290 289 289 288 288 288 286 288 289 287 290 292 292 291 287 289 286 288 289 288
288 288 288 287 287 287 287 286 286 287 287 287 287 288 292 292 288 285 285 284 284 285
Wind_Speed
18 12 11 12 10 8 8 9 12 11 13 14 11 10 7 7 8 8 8 11 8 6
16 16 13 14 13 8 8 7 10 10 11 10 7 9 8 7 8 8 9 10 9 8
11 12 11 7 8 7 6 5 5 5 6 6 5 5 5 4 4 5 4 5 6 7
6 7 6 6 5 6 5 6 6 5 5 5 5 5 5 4 4 5 4 5 4 5
3 4 5 5 5 4 5 4 6 6 4 4 4 4 4 3 3 4 3 4 4 6
4 4 4 5 6 5 5 5 5 6 4 4 5 5 3 2 2 4 4 4 4 5
4 4 4 4 4 4 3 4 4 5 4 4 5 5 4 3 3 3 2 2 2 3
5 5 5 5 5 4 5 4 5 6 4 4 5 3 4 3 3 3 2 2 1 1
6 5 5 5 5 5 5 5 5 5 5 5 3 4 3 2 3 3 3 3 3 3
6 6 6 6 6 5 5 5 5 5 5 5 4 4 3 2 2 2 2 2 1 1
2 6 6 6 6 5 4 5 4 4 5 5 4 5 4 3 2 3 2 2 3 3
4 4 4 4 5 2 3 3 3 3 5 5 4 6 5 3 2 1 0 1 0 0
4 4 4 4 4 2 2 3 3 4 3 3 4 3 4 2 2 1 1 2 2 1
2 3 3 3 2 4 5 4 4 4 2 2 2 3 3 1 1 0 1 2 2 2
Wind_Direction
207 214 217 221 222 218 213 210 212 205 208 213 214 208 199 205 213 208 215 220 223 225
199 206 215 216 223 219 215 211 210 203 201 206 193 199 190 194 201 200 211 220 223 224
208 200 204 182 198 191 167 160 176 180 200 196 203 196 188 187 197 202 212 224 222 226
211 192 186 186 187 169 156 163 191 180 185 189 195 207 189 224 217 226 222 225 225 243
146 126 147 141 141 157 171 164 164 164 170 175 184 184 165 191 196 234 229 238 234 246
97 107 115 118 119 111 120 127 120 119 137 156 158 145 126 157 245 250 242 232 233 261
125 126 120 113 115 127 136 129 119 123 148 154 149 144 154 171 216 240 255 265 278 256
90 97 104 103 103 102 106 115 130 112 120 128 109 115 163 189 193 188 178 130 144 87
127 122 120 111 120 111 114 111 119 129 138 120 105 111 112 169 177 162 173 165 150 151
142 142 149 143 135 143 140 129 132 123 122 106 99 109 104 70 121 125 130 152 191 241
173 160 157 151 162 154 142 144 140 134 127 127 131 149 146 124 142 129 133 165 187 196
190 186 175 178 170 156 131 128 131 128 135 137 135 138 142 139 96 107 51 290 275 238
183 181 196 188 166 126 89 115 118 116 99 101 116 101 107 115 102 36 336 338 301 282
142 154 165 136 121 131 123 116 106 102 75 69 61 26 27 61 94 207 293 289 305 294